Time,TemperatureF,DewpointF,PressureIn,WindDirection,WindDirectionDegrees,WindSpeedMPH,WindSpeedGustMPH,Humidity,HourlyPrecipIn,Conditions,Clouds,dailyrainin,SoftwareType,DateUTC
2013-07-12 00:01:00,85.5,64.1,29.09,SSE,165,6.3,8.3,49,0.00,,,0.00,LWC V2.10 B1813,2013-07-12 05:01:00,
2013-07-12 00:06:00,85.3,64.5,29.09,ESE,123,5.8,11.0,50,0.00,,,0.00,LWC V2.10 B1813,2013-07-12 05:06:00,
2013-07-12 00:11:00,85.1,64.3,29.09,SSW,203,6.3,8.7,50,0.00,,,0.00,LWC V2.10 B1813,2013-07-12 05:11:00,
2013-07-12 00:16:00,85.1,64.3,29.09,SE,140,5.8,8.1,50,0.00,,,0.00,LWC V2.10 B1813,2013-07-12 05:16:00,
2013-07-12 00:21:00,84.9,64.7,29.09,SSE,158,5.8,10.1,51,0.00,,,0.00,LWC V2.10 B1813,2013-07-12 05:21:00,
2013-07-12 00:26:00,84.9,64.7,29.09,SSE,151,6.3,10.5,51,0.00,,,0.00,LWC V2.10 B1813,2013-07-12 05:26:00,
2013-07-12 00:31:00,84.7,64.6,29.09,SE,140,5.8,12.3,51,0.00,,,0.00,LWC V2.10 B1813,2013-07-12 05:31:00,
2013-07-12 00:36:00,84.7,65.1,29.09,SSW,204,8.7,8.7,52,0.00,,,0.00,LWC V2.10 B1813,2013-07-12 05:36:00,
2013-07-12 00:41:00,84.6,65.0,29.09,SE,142,7.6,11.0,52,0.00,,,0.00,LWC V2.10 B1813,2013-07-12 05:41:00,
2013-07-12 00:46:00,84.4,64.2,29.09,SSE,167,3.6,8.7,51,0.00,,,0.00,LWC V2.10 B1813,2013-07-12 05:46:00,
2013-07-12 00:51:00,84.4,64.8,29.09,South,172,8.1,10.5,52,0.00,,,0.00,LWC V2.10 B1813,2013-07-12 05:51:00,
2013-07-12 00:56:00,84.2,64.6,29.09,South,176,6.3,6.3,52,0.00,,,0.00,LWC V2.10 B1813,2013-07-12 05:56:00,
2013-07-12 01:01:00,84.0,64.5,29.09,South,190,7.6,10.5,52,0.00,,,0.00,LWC V2.10 B1813,2013-07-12 06:01:00,
2013-07-12 01:06:00,83.8,64.3,29.09,ESE,107,5.8,6.3,52,0.00,,,0.00,LWC V2.10 B1813,2013-07-12 06:06:00,
2013-07-12 01:11:00,83.7,64.1,29.09,SE,142,8.1,10.5,52,0.00,,,0.00,LWC V2.10 B1813,2013-07-12 06:11:00,
2013-07-12 01:16:00,83.5,64.0,29.09,South,187,6.3,10.1,52,0.00,,,0.00,LWC V2.10 B1813,2013-07-12 06:16:00,
2013-07-12 01:21:00,83.5,63.4,29.09,SW,214,4.9,10.1,51,0.00,,,0.00,LWC V2.10 B1813,2013-07-12 06:21:00,
2013-07-12 01:26:00,83.3,63.3,29.09,South,179,3.1,10.5,51,0.00,,,0.00,LWC V2.10 B1813,2013-07-12 06:26:00,
2013-07-12 01:31:00,83.1,62.5,29.09,SW,216,4.0,7.6,50,0.00,,,0.00,LWC V2.10 B1813,2013-07-12 06:31:00,
2013-07-12 01:36:00,83.1,62.5,29.09,SSW,212,4.0,5.4,50,0.00,,,0.00,LWC V2.10 B1813,2013-07-12 06:36:00,
2013-07-12 01:41:00,82.8,62.2,29.09,SSW,196,5.4,7.6,50,0.00,,,0.00,LWC V2.10 B1813,2013-07-12 06:41:00,
2013-07-12 01:42:00,82.9,62.4,29.09,South,176,4.0,7.6,50,0.00,,,0.00,LWC V2.10 B1813,2013-07-12 06:42:00,
2013-07-12 01:47:00,82.8,62.2,29.09,South,184,2.7,5.4,50,0.00,,,0.00,LWC V2.10 B1813,2013-07-12 06:47:00,
2013-07-12 01:52:00,82.6,62.6,29.09,SSW,207,4.9,5.8,51,0.00,,,0.00,LWC V2.10 B1813,2013-07-12 06:52:00,
2013-07-12 01:57:00,82.4,62.4,29.09,SE,143,3.1,5.4,51,0.00,,,0.00,LWC V2.10 B1813,2013-07-12 06:57:00,
2013-07-12 02:02:00,82.4,62.4,29.09,SSE,162,3.6,4.0,51,0.00,,,0.00,LWC V2.10 B1813,2013-07-12 07:02:00,
2013-07-12 02:07:00,82.0,62.6,29.09,SW,223,5.4,5.4,52,0.00,,,0.00,LWC V2.10 B1813,2013-07-12 07:07:00,
2013-07-12 02:12:00,81.9,62.5,29.09,South,171,4.0,5.8,52,0.00,,,0.00,LWC V2.10 B1813,2013-07-12 07:12:00,
2013-07-12 02:17:00,81.7,62.9,29.09,South,173,7.2,7.2,53,0.00,,,0.00,LWC V2.10 B1813,2013-07-12 07:17:00,
2013-07-12 02:22:00,81.5,62.7,29.09,South,190,4.0,4.9,53,0.00,,,0.00,LWC V2.10 B1813,2013-07-12 07:22:00,
2013-07-12 02:27:00,81.5,62.7,29.09,South,188,5.4,7.6,53,0.00,,,0.00,LWC V2.10 B1813,2013-07-12 07:27:00,
2013-07-12 02:32:00,81.3,63.1,29.09,SE,146,5.8,8.3,54,0.00,,,0.00,LWC V2.10 B1813,2013-07-12 07:32:00,
2013-07-12 02:33:00,81.3,63.1,29.09,South,180,8.7,8.7,54,0.00,,,0.00,LWC V2.10 B1813,2013-07-12 07:33:00,
2013-07-12 02:38:00,81.1,62.9,29.09,SSW,194,3.6,6.3,54,0.00,,,0.00,LWC V2.10 B1813,2013-07-12 07:38:00,
2013-07-12 02:44:00,81.0,63.2,29.09,SSW,207,2.7,4.9,55,0.00,,,0.00,LWC V2.10 B1813,2013-07-12 07:44:00,
2013-07-12 02:49:00,80.8,63.1,29.09,SSW,202,3.6,5.4,55,0.00,,,0.00,LWC V2.10 B1813,2013-07-12 07:49:00,
2013-07-12 02:54:00,80.4,63.3,29.09,South,191,6.3,6.3,56,0.00,,,0.00,LWC V2.10 B1813,2013-07-12 07:54:00,
2013-07-12 02:59:00,80.6,63.4,29.09,SSW,194,2.7,4.9,56,0.00,,,0.00,LWC V2.10 B1813,2013-07-12 07:59:00,
2013-07-12 03:04:00,80.4,63.8,29.09,South,169,3.1,5.4,57,0.00,,,0.00,LWC V2.10 B1813,2013-07-12 08:04:00,
2013-07-12 03:09:00,80.1,63.9,29.09,SSW,198,3.1,5.4,58,0.00,,,0.00,LWC V2.10 B1813,2013-07-12 08:09:00,
2013-07-12 03:14:00,79.9,64.2,29.09,South,178,3.6,5.4,59,0.00,,,0.00,LWC V2.10 B1813,2013-07-12 08:14:00,
2013-07-12 03:19:00,79.7,64.1,29.09,SSE,157,5.4,8.1,59,0.00,,,0.00,LWC V2.10 B1813,2013-07-12 08:19:00,
2013-07-12 03:24:00,79.7,64.1,29.09,SSE,167,3.1,5.8,59,0.00,,,0.00,LWC V2.10 B1813,2013-07-12 08:24:00,
2013-07-12 03:29:00,79.5,63.9,29.09,SSE,168,3.6,5.8,59,0.00,,,0.00,LWC V2.10 B1813,2013-07-12 08:29:00,
2013-07-12 03:34:00,79.3,63.7,29.09,South,179,2.7,4.9,59,0.00,,,0.00,LWC V2.10 B1813,2013-07-12 08:34:00,
2013-07-12 03:39:00,79.2,64.1,29.09,SSE,168,3.6,4.9,60,0.00,,,0.00,LWC V2.10 B1813,2013-07-12 08:39:00,
2013-07-12 03:44:00,79.2,64.1,29.09,South,170,3.6,4.0,60,0.00,,,0.00,LWC V2.10 B1813,2013-07-12 08:44:00,
2013-07-12 03:49:00,79.0,63.9,29.09,SE,126,3.1,4.9,60,0.00,,,0.00,LWC V2.10 B1813,2013-07-12 08:49:00,
2013-07-12 03:54:00,79.0,64.4,29.09,SSW,202,2.7,3.6,61,0.00,,,0.00,LWC V2.10 B1813,2013-07-12 08:54:00,
2013-07-12 03:59:00,78.8,64.2,29.09,SSW,210,2.7,3.6,61,0.00,,,0.00,LWC V2.10 B1813,2013-07-12 08:59:00,
2013-07-12 04:04:00,78.6,64.5,29.09,SSW,210,3.6,3.6,62,0.00,,,0.00,LWC V2.10 B1813,2013-07-12 09:04:00,
2013-07-12 04:09:00,78.4,64.8,29.09,South,170,2.7,5.4,63,0.00,,,0.00,LWC V2.10 B1813,2013-07-12 09:09:00,
2013-07-12 04:14:00,78.3,64.6,29.09,SSW,202,2.7,3.6,63,0.00,,,0.00,LWC V2.10 B1813,2013-07-12 09:14:00,
2013-07-12 04:19:00,78.1,64.9,29.09,SW,220,3.6,4.0,64,0.00,,,0.00,LWC V2.10 B1813,2013-07-12 09:19:00,
2013-07-12 04:24:00,78.1,64.9,29.09,SSW,203,2.7,3.6,64,0.00,,,0.00,LWC V2.10 B1813,2013-07-12 09:24:00,
2013-07-12 04:29:00,78.1,64.9,29.09,SSW,209,0.0,2.7,64,0.00,,,0.00,LWC V2.10 B1813,2013-07-12 09:29:00,
2013-07-12 04:34:00,77.9,65.2,29.09,SSW,199,2.7,3.1,65,0.00,,,0.00,LWC V2.10 B1813,2013-07-12 09:34:00,
2013-07-12 04:39:00,77.7,65.4,29.09,SW,214,3.1,4.0,66,0.00,,,0.00,LWC V2.10 B1813,2013-07-12 09:39:00,
2013-07-12 04:44:00,77.4,65.1,29.09,South,170,2.7,3.6,66,0.00,,,0.00,LWC V2.10 B1813,2013-07-12 09:44:00,
2013-07-12 04:49:00,77.2,65.4,29.09,SSW,212,4.0,5.4,67,0.00,,,0.00,LWC V2.10 B1813,2013-07-12 09:49:00,
2013-07-12 04:54:00,77.4,66.0,29.09,SSW,205,3.1,3.6,68,0.00,,,0.00,LWC V2.10 B1813,2013-07-12 09:54:00,
2013-07-12 04:59:00,77.2,65.8,29.09,SSW,211,2.7,2.7,68,0.00,,,0.00,LWC V2.10 B1813,2013-07-12 09:59:00,
2013-07-12 05:04:00,77.2,65.8,29.09,SW,219,2.7,6.3,68,0.00,,,0.00,LWC V2.10 B1813,2013-07-12 10:04:00,
2013-07-12 05:09:00,77.2,65.8,29.09,SW,216,0.0,3.6,68,0.00,,,0.00,LWC V2.10 B1813,2013-07-12 10:09:00,
2013-07-12 05:14:00,77.4,66.0,29.09,South,188,3.1,3.1,68,0.00,,,0.00,LWC V2.10 B1813,2013-07-12 10:14:00,
2013-07-12 05:19:00,77.4,65.5,29.09,SSW,211,0.0,0.0,67,0.00,,,0.00,LWC V2.10 B1813,2013-07-12 10:19:00,
2013-07-12 05:24:00,77.0,65.2,29.09,SSW,196,0.0,2.7,67,0.00,,,0.00,LWC V2.10 B1813,2013-07-12 10:24:00,
2013-07-12 05:29:00,76.6,65.3,29.09,SSW,196,0.0,0.0,68,0.00,,,0.00,LWC V2.10 B1813,2013-07-12 10:29:00,
2013-07-12 05:34:00,76.5,65.5,29.09,SW,220,2.7,3.1,69,0.00,,,0.00,LWC V2.10 B1813,2013-07-12 10:34:00,
2013-07-12 05:39:00,76.5,65.5,29.09,SW,216,3.6,5.8,69,0.00,,,0.00,LWC V2.10 B1813,2013-07-12 10:39:00,
2013-07-12 05:44:00,76.6,66.1,29.09,WSW,237,4.0,4.0,70,0.00,,,0.00,LWC V2.10 B1813,2013-07-12 10:44:00,
2013-07-12 05:49:00,76.8,65.9,29.09,SW,217,3.6,4.0,69,0.00,,,0.00,LWC V2.10 B1813,2013-07-12 10:49:00,
2013-07-12 05:54:00,76.6,66.1,29.09,SW,216,2.7,3.6,70,0.00,,,0.00,LWC V2.10 B1813,2013-07-12 10:54:00,
2013-07-12 05:59:00,76.5,65.9,29.09,SW,217,0.0,2.7,70,0.00,,,0.00,LWC V2.10 B1813,2013-07-12 10:59:00,
2013-07-12 06:04:00,76.3,65.8,29.09,SW,227,3.6,4.0,70,0.00,,,0.00,LWC V2.10 B1813,2013-07-12 11:04:00,
2013-07-12 06:09:00,76.3,65.8,29.09,SW,224,2.2,3.1,70,0.00,,,0.00,LWC V2.10 B1813,2013-07-12 11:09:00,
2013-07-12 06:14:00,76.3,65.8,29.09,SW,219,4.0,4.0,70,0.00,,,0.00,LWC V2.10 B1813,2013-07-12 11:14:00,
2013-07-12 06:19:00,76.1,66.0,29.09,SW,220,3.1,3.6,71,0.00,,,0.00,LWC V2.10 B1813,2013-07-12 11:19:00,
2013-07-12 06:24:00,75.9,65.8,29.09,SW,218,2.7,4.0,71,0.00,,,0.00,LWC V2.10 B1813,2013-07-12 11:24:00,
2013-07-12 06:29:00,75.9,65.8,29.09,SW,222,0.0,0.0,71,0.00,,,0.00,LWC V2.10 B1813,2013-07-12 11:29:00,
2013-07-12 06:34:00,75.9,65.4,29.09,SW,222,0.0,0.0,70,0.00,,,0.00,LWC V2.10 B1813,2013-07-12 11:34:00,
2013-07-12 06:39:00,76.1,65.6,29.09,SW,222,2.2,2.7,70,0.00,,,0.00,LWC V2.10 B1813,2013-07-12 11:39:00,
2013-07-12 06:44:00,75.9,65.8,29.09,SW,222,2.7,2.7,71,0.00,,,0.00,LWC V2.10 B1813,2013-07-12 11:44:00,
2013-07-12 06:49:00,76.1,66.0,29.09,SW,222,0.0,0.0,71,0.00,,,0.00,LWC V2.10 B1813,2013-07-12 11:49:00,
2013-07-12 06:54:00,75.9,65.8,29.09,SW,222,0.0,0.0,71,0.00,,,0.00,LWC V2.10 B1813,2013-07-12 11:54:00,
2013-07-12 06:59:00,75.6,65.1,29.09,SW,222,0.0,0.0,70,0.00,,,0.00,LWC V2.10 B1813,2013-07-12 11:59:00,
2013-07-12 07:04:00,75.6,65.5,29.12,SW,222,0.0,0.0,71,0.00,,,0.00,LWC V2.10 B1813,2013-07-12 12:04:00,
2013-07-12 07:09:00,75.6,65.1,29.12,SW,222,0.0,0.0,70,0.00,,,0.00,LWC V2.10 B1813,2013-07-12 12:09:00,
2013-07-12 07:14:00,75.6,65.5,29.12,SW,222,0.0,0.0,71,0.00,,,0.00,LWC V2.10 B1813,2013-07-12 12:14:00,
2013-07-12 07:19:00,75.6,65.5,29.12,SW,222,0.0,0.0,71,0.00,,,0.00,LWC V2.10 B1813,2013-07-12 12:19:00,
2013-07-12 07:24:00,75.6,65.5,29.12,SW,222,0.0,0.0,71,0.00,,,0.00,LWC V2.10 B1813,2013-07-12 12:24:00,
2013-07-12 07:29:00,75.7,65.7,29.12,SW,222,0.0,0.0,71,0.00,,,0.00,LWC V2.10 B1813,2013-07-12 12:29:00,
2013-07-12 07:34:00,75.6,65.9,29.12,SW,222,0.0,0.0,72,0.00,,,0.00,LWC V2.10 B1813,2013-07-12 12:34:00,
2013-07-12 07:36:00,75.7,66.1,29.12,SW,222,0.0,0.0,72,0.00,,,0.00,LWC V2.10 B1813,2013-07-12 12:36:00,
2013-07-12 07:41:00,75.7,66.1,29.12,SW,222,0.0,0.0,72,0.00,,,0.00,LWC V2.10 B1813,2013-07-12 12:41:00,
2013-07-12 07:46:00,75.9,66.2,29.12,SW,222,0.0,0.0,72,0.00,,,0.00,LWC V2.10 B1813,2013-07-12 12:46:00,
2013-07-12 07:51:00,76.1,66.4,29.12,SW,222,0.0,0.0,72,0.00,,,0.00,LWC V2.10 B1813,2013-07-12 12:51:00,
2013-07-12 07:56:00,76.3,67.0,29.12,SW,222,0.0,0.0,73,0.00,,,0.00,LWC V2.10 B1813,2013-07-12 12:56:00,
2013-07-12 08:01:00,76.5,67.1,29.12,SW,222,0.0,0.0,73,0.00,,,0.00,LWC V2.10 B1813,2013-07-12 13:01:00,
2013-07-12 08:06:00,76.6,66.9,29.12,SW,222,0.0,0.0,72,0.00,,,0.00,LWC V2.10 B1813,2013-07-12 13:06:00,
2013-07-12 08:11:00,76.8,67.1,29.12,SSW,212,0.0,0.0,72,0.00,,,0.00,LWC V2.10 B1813,2013-07-12 13:11:00,
2013-07-12 08:16:00,77.0,66.9,29.12,West,265,0.0,0.0,71,0.00,,,0.00,LWC V2.10 B1813,2013-07-12 13:16:00,
2013-07-12 08:21:00,77.4,67.2,29.12,SSW,201,0.0,0.0,71,0.00,,,0.00,LWC V2.10 B1813,2013-07-12 13:21:00,
2013-07-12 08:26:00,77.4,67.2,29.12,SSE,167,0.0,2.7,71,0.00,,,0.00,LWC V2.10 B1813,2013-07-12 13:26:00,
2013-07-12 08:31:00,77.5,67.4,29.12,SSW,197,0.0,0.0,71,0.00,,,0.00,LWC V2.10 B1813,2013-07-12 13:31:00,
2013-07-12 08:36:00,77.7,67.5,29.12,SSW,211,3.1,3.6,71,0.00,,,0.00,LWC V2.10 B1813,2013-07-12 13:36:00,
2013-07-12 08:41:00,78.3,68.1,29.12,SW,215,4.5,4.5,71,0.00,,,0.00,LWC V2.10 B1813,2013-07-12 13:41:00,
2013-07-12 08:46:00,78.4,68.2,29.12,SW,216,3.1,4.0,71,0.00,,,0.00,LWC V2.10 B1813,2013-07-12 13:46:00,
2013-07-12 08:51:00,78.6,68.0,29.12,SW,219,2.7,3.6,70,0.00,,,0.00,LWC V2.10 B1813,2013-07-12 13:51:00,
2013-07-12 08:56:00,79.0,67.9,29.12,SW,227,2.7,4.9,69,0.00,,,0.00,LWC V2.10 B1813,2013-07-12 13:56:00,
2013-07-12 09:01:00,79.5,68.4,29.12,SW,216,0.0,3.6,69,0.00,,,0.00,LWC V2.10 B1813,2013-07-12 14:01:00,
2013-07-12 09:06:00,79.7,68.2,29.12,SSW,202,2.7,2.7,68,0.00,,,0.00,LWC V2.10 B1813,2013-07-12 14:06:00,
2013-07-12 09:11:00,79.7,68.2,29.12,SSW,198,3.1,5.4,68,0.00,,,0.00,LWC V2.10 B1813,2013-07-12 14:11:00,
2013-07-12 09:16:00,79.9,68.4,29.12,SSW,208,4.0,4.0,68,0.00,,,0.00,LWC V2.10 B1813,2013-07-12 14:16:00,
2013-07-12 09:21:00,80.4,68.9,29.12,SSW,206,5.4,6.3,68,0.00,,,0.00,LWC V2.10 B1813,2013-07-12 14:21:00,
2013-07-12 09:26:00,81.0,68.9,29.12,WSW,244,2.7,4.9,67,0.00,,,0.00,LWC V2.10 B1813,2013-07-12 14:26:00,
2013-07-12 09:31:00,81.1,68.7,29.12,SW,218,3.1,7.6,66,0.00,,,0.00,LWC V2.10 B1813,2013-07-12 14:31:00,
2013-07-12 09:32:00,81.3,68.8,29.12,SW,220,4.0,5.8,66,0.00,,,0.00,LWC V2.10 B1813,2013-07-12 14:32:00,
2013-07-12 09:37:00,82.4,69.4,29.12,SW,217,3.6,5.4,65,0.00,,,0.00,LWC V2.10 B1813,2013-07-12 14:37:00,
2013-07-12 09:42:00,82.0,68.2,29.12,SSW,197,4.9,5.8,63,0.00,,,0.00,LWC V2.10 B1813,2013-07-12 14:42:00,
2013-07-12 09:47:00,82.8,68.4,29.12,SSE,165,4.0,5.4,62,0.00,,,0.00,LWC V2.10 B1813,2013-07-12 14:47:00,
2013-07-12 09:52:00,83.3,68.9,29.12,SSW,203,3.6,3.6,62,0.00,,,0.00,LWC V2.10 B1813,2013-07-12 14:52:00,
2013-07-12 09:57:00,83.7,68.8,29.12,SSW,208,3.6,4.0,61,0.00,,,0.00,LWC V2.10 B1813,2013-07-12 14:57:00,
2013-07-12 10:02:00,84.0,69.1,29.12,SSW,197,3.1,5.8,61,0.00,,,0.00,LWC V2.10 B1813,2013-07-12 15:02:00,
2013-07-12 10:07:00,84.2,68.8,29.12,SSW,199,2.7,4.0,60,0.00,,,0.00,LWC V2.10 B1813,2013-07-12 15:07:00,
2013-07-12 10:12:00,84.4,68.5,29.12,ESE,116,0.0,2.7,59,0.00,,,0.00,LWC V2.10 B1813,2013-07-12 15:12:00,
2013-07-12 10:18:00,85.5,69.5,29.12,SSE,163,0.0,0.0,59,0.00,,,0.00,LWC V2.10 B1813,2013-07-12 15:18:00,
2013-07-12 10:23:00,85.8,69.3,29.12,WNW,294,5.4,5.4,58,0.00,,,0.00,LWC V2.10 B1813,2013-07-12 15:23:00,
2013-07-12 10:28:00,85.6,68.6,29.12,NNW,327,3.6,3.6,57,0.00,,,0.00,LWC V2.10 B1813,2013-07-12 15:28:00,
2013-07-12 10:33:00,85.5,67.9,29.12,WNW,284,4.0,4.0,56,0.00,,,0.00,LWC V2.10 B1813,2013-07-12 15:33:00,
2013-07-12 10:38:00,85.6,67.6,29.12,West,274,2.2,5.4,55,0.00,,,0.00,LWC V2.10 B1813,2013-07-12 15:38:00,
2013-07-12 10:43:00,86.7,68.6,29.12,South,184,2.7,3.1,55,0.00,,,0.00,LWC V2.10 B1813,2013-07-12 15:43:00,
2013-07-12 10:48:00,86.5,67.3,29.12,SW,231,3.1,4.9,53,0.00,,,0.00,LWC V2.10 B1813,2013-07-12 15:48:00,
2013-07-12 10:53:00,86.9,67.1,29.12,West,276,2.7,4.9,52,0.00,,,0.00,LWC V2.10 B1813,2013-07-12 15:53:00,
2013-07-12 10:58:00,87.3,66.3,29.12,WNW,287,3.1,7.2,50,0.00,,,0.00,LWC V2.10 B1813,2013-07-12 15:58:00,
2013-07-12 11:03:00,87.3,66.3,29.12,WNW,290,5.4,5.8,50,0.00,,,0.00,LWC V2.10 B1813,2013-07-12 16:03:00,
2013-07-12 11:08:00,87.6,66.1,29.12,NE,39,2.7,4.0,49,0.00,,,0.00,LWC V2.10 B1813,2013-07-12 16:08:00,
2013-07-12 11:13:00,88.2,66.0,29.12,ENE,58,0.0,2.2,48,0.00,,,0.00,LWC V2.10 B1813,2013-07-12 16:13:00,
2013-07-12 11:18:00,88.2,65.3,29.12,West,267,2.7,5.8,47,0.00,,,0.00,LWC V2.10 B1813,2013-07-12 16:18:00,
2013-07-12 11:23:00,88.9,65.4,29.12,SW,219,4.0,4.0,46,0.00,,,0.00,LWC V2.10 B1813,2013-07-12 16:23:00,
2013-07-12 11:28:00,88.3,64.3,29.12,WNW,286,4.5,5.4,45,0.00,,,0.00,LWC V2.10 B1813,2013-07-12 16:28:00,
2013-07-12 11:33:00,88.9,64.7,29.12,SSW,203,3.6,5.8,45,0.00,,,0.00,LWC V2.10 B1813,2013-07-12 16:33:00,
2013-07-12 11:38:00,89.6,64.8,29.12,WNW,303,3.1,3.6,44,0.00,,,0.00,LWC V2.10 B1813,2013-07-12 16:38:00,
2013-07-12 11:43:00,90.0,63.7,29.12,WSW,239,4.0,5.8,42,0.00,,,0.00,LWC V2.10 B1813,2013-07-12 16:43:00,
2013-07-12 11:48:00,89.8,63.6,29.12,SSW,198,3.1,6.3,42,0.00,,,0.00,LWC V2.10 B1813,2013-07-12 16:48:00,
2013-07-12 11:53:00,90.9,63.9,29.12,SSW,210,4.9,6.3,41,0.00,,,0.00,LWC V2.10 B1813,2013-07-12 16:53:00,
2013-07-12 11:58:00,91.2,63.5,29.12,South,190,3.1,5.4,40,0.00,,,0.00,LWC V2.10 B1813,2013-07-12 16:58:00,
2013-07-12 12:03:00,92.1,63.5,29.12,SSE,165,4.0,7.6,39,0.00,,,0.00,LWC V2.10 B1813,2013-07-12 17:03:00,
2013-07-12 12:08:00,91.4,62.2,29.12,SE,133,2.7,6.3,38,0.00,,,0.00,LWC V2.10 B1813,2013-07-12 17:08:00,
2013-07-12 12:13:00,91.9,61.9,29.12,SSW,193,4.0,8.1,37,0.00,,,0.00,LWC V2.10 B1813,2013-07-12 17:13:00,
2013-07-12 12:18:00,91.2,62.0,29.12,SSE,152,3.1,8.1,38,0.00,,,0.00,LWC V2.10 B1813,2013-07-12 17:18:00,
2013-07-12 12:23:00,92.1,62.1,29.12,WSW,239,2.7,6.3,37,0.00,,,0.00,LWC V2.10 B1813,2013-07-12 17:23:00,
2013-07-12 12:28:00,92.5,60.8,29.12,SSW,199,2.7,4.0,35,0.00,,,0.00,LWC V2.10 B1813,2013-07-12 17:28:00,
2013-07-12 12:33:00,92.8,61.9,29.12,South,183,7.6,8.1,36,0.00,,,0.00,LWC V2.10 B1813,2013-07-12 17:33:00,
2013-07-12 12:38:00,93.0,62.8,29.12,SSE,158,3.1,5.8,37,0.00,,,0.00,LWC V2.10 B1813,2013-07-12 17:38:00,
2013-07-12 12:43:00,94.1,63.8,29.12,ESE,112,6.3,6.3,37,0.00,,,0.00,LWC V2.10 B1813,2013-07-12 17:43:00,
2013-07-12 12:48:00,93.7,63.5,29.12,NE,52,2.7,5.8,37,0.00,,,0.00,LWC V2.10 B1813,2013-07-12 17:48:00,
2013-07-12 12:53:00,94.3,64.0,29.12,East,99,7.2,8.3,37,0.00,,,0.00,LWC V2.10 B1813,2013-07-12 17:53:00,
2013-07-12 12:58:00,93.9,62.9,29.12,South,174,7.6,7.6,36,0.00,,,0.00,LWC V2.10 B1813,2013-07-12 17:58:00,
2013-07-12 13:03:00,93.9,62.1,29.12,East,80,2.7,4.0,35,0.00,,,0.00,LWC V2.10 B1813,2013-07-12 18:03:00,
2013-07-12 13:08:00,95.4,60.8,29.12,East,100,3.6,7.2,32,0.00,,,0.00,LWC V2.10 B1813,2013-07-12 18:08:00,
2013-07-12 13:13:00,95.5,61.8,29.12,East,90,3.1,5.4,33,0.00,,,0.00,LWC V2.10 B1813,2013-07-12 18:13:00,
2013-07-12 13:18:00,95.5,60.9,29.12,East,93,3.1,8.1,32,0.00,,,0.00,LWC V2.10 B1813,2013-07-12 18:18:00,
2013-07-12 13:23:00,95.4,59.9,29.12,South,172,0.0,8.3,31,0.00,,,0.00,LWC V2.10 B1813,2013-07-12 18:23:00,
2013-07-12 13:28:00,96.4,60.8,29.12,East,85,2.7,6.3,31,0.00,,,0.00,LWC V2.10 B1813,2013-07-12 18:28:00,
2013-07-12 13:33:00,96.3,60.6,29.12,East,84,5.4,5.4,31,0.00,,,0.00,LWC V2.10 B1813,2013-07-12 18:33:00,
2013-07-12 13:38:00,96.4,60.8,29.12,East,88,3.1,3.6,31,0.00,,,0.00,LWC V2.10 B1813,2013-07-12 18:38:00,
2013-07-12 13:43:00,96.3,60.6,29.12,SE,127,2.7,5.4,31,0.00,,,0.00,LWC V2.10 B1813,2013-07-12 18:43:00,
2013-07-12 13:48:00,96.3,59.7,29.12,South,173,6.3,8.3,30,0.00,,,0.00,LWC V2.10 B1813,2013-07-12 18:48:00,
2013-07-12 13:53:00,95.9,59.4,29.12,SE,144,2.7,5.8,30,0.00,,,0.00,LWC V2.10 B1813,2013-07-12 18:53:00,
2013-07-12 13:58:00,96.8,60.2,29.12,East,84,10.1,10.1,30,0.00,,,0.00,LWC V2.10 B1813,2013-07-12 18:58:00,
2013-07-12 14:03:00,96.6,60.0,29.09,East,97,5.8,6.3,30,0.00,,,0.00,LWC V2.10 B1813,2013-07-12 19:03:00,
2013-07-12 14:08:00,96.6,60.0,29.09,ESE,102,8.7,8.7,30,0.00,,,0.00,LWC V2.10 B1813,2013-07-12 19:08:00,
2013-07-12 14:13:00,97.0,60.3,29.09,SE,141,2.7,5.4,30,0.00,,,0.00,LWC V2.10 B1813,2013-07-12 19:13:00,
2013-07-12 14:18:00,97.2,59.5,29.09,SSE,164,5.4,9.6,29,0.00,,,0.00,LWC V2.10 B1813,2013-07-12 19:18:00,
2013-07-12 14:23:00,97.7,60.0,29.09,SSW,200,3.1,5.8,29,0.00,,,0.00,LWC V2.10 B1813,2013-07-12 19:23:00,
2013-07-12 14:28:00,98.2,60.5,29.09,NE,41,2.7,6.7,29,0.00,,,0.00,LWC V2.10 B1813,2013-07-12 19:28:00,
2013-07-12 14:33:00,98.4,60.6,29.09,ENE,72,3.6,5.4,29,0.00,,,0.00,LWC V2.10 B1813,2013-07-12 19:33:00,
2013-07-12 14:38:00,98.4,60.6,29.09,ENE,71,4.0,4.0,29,0.00,,,0.00,LWC V2.10 B1813,2013-07-12 19:38:00,
2013-07-12 14:43:00,98.1,59.3,29.09,SE,132,3.6,8.3,28,0.00,,,0.00,LWC V2.10 B1813,2013-07-12 19:43:00,
2013-07-12 14:48:00,98.2,59.5,29.09,ESE,109,2.7,8.7,28,0.00,,,0.00,LWC V2.10 B1813,2013-07-12 19:48:00,
2013-07-12 14:53:00,98.1,59.3,29.09,ESE,122,8.3,11.0,28,0.00,,,0.00,LWC V2.10 B1813,2013-07-12 19:53:00,
2013-07-12 14:58:00,97.9,59.2,29.09,SE,144,3.1,5.8,28,0.00,,,0.00,LWC V2.10 B1813,2013-07-12 19:58:00,
2013-07-12 15:03:00,97.7,59.0,29.09,ENE,74,2.7,8.7,28,0.00,,,0.00,LWC V2.10 B1813,2013-07-12 20:03:00,
2013-07-12 15:08:00,98.2,59.5,29.09,SSW,210,7.6,8.3,28,0.00,,,0.00,LWC V2.10 B1813,2013-07-12 20:08:00,
2013-07-12 15:13:00,98.8,59.9,29.09,SSE,150,8.3,8.3,28,0.00,,,0.00,LWC V2.10 B1813,2013-07-12 20:13:00,
2013-07-12 15:18:00,97.5,58.9,29.09,NE,56,8.7,11.0,28,0.00,,,0.00,LWC V2.10 B1813,2013-07-12 20:18:00,
2013-07-12 15:23:00,98.1,59.3,29.09,NE,43,5.4,8.3,28,0.00,,,0.00,LWC V2.10 B1813,2013-07-12 20:23:00,
2013-07-12 15:28:00,97.7,59.0,29.09,SE,137,8.1,8.1,28,0.00,,,0.00,LWC V2.10 B1813,2013-07-12 20:28:00,
2013-07-12 15:33:00,97.7,60.0,29.09,SE,138,8.1,8.7,29,0.00,,,0.00,LWC V2.10 B1813,2013-07-12 20:33:00,
2013-07-12 15:38:00,98.1,59.3,29.09,SE,145,7.2,7.2,28,0.00,,,0.00,LWC V2.10 B1813,2013-07-12 20:38:00,
2013-07-12 15:43:00,98.6,59.8,29.09,East,92,5.8,11.0,28,0.00,,,0.00,LWC V2.10 B1813,2013-07-12 20:43:00,
2013-07-12 15:48:00,99.0,60.1,29.09,East,86,5.4,5.8,28,0.00,,,0.00,LWC V2.10 B1813,2013-07-12 20:48:00,
2013-07-12 15:53:00,98.8,59.9,29.09,SE,131,3.6,5.4,28,0.00,,,0.00,LWC V2.10 B1813,2013-07-12 20:53:00,
2013-07-12 15:58:00,99.0,60.1,29.09,SSE,159,5.8,10.5,28,0.00,,,0.00,LWC V2.10 B1813,2013-07-12 20:58:00,
2013-07-12 16:03:00,98.4,59.6,29.06,South,172,2.7,10.1,28,0.00,,,0.00,LWC V2.10 B1813,2013-07-12 21:03:00,
2013-07-12 16:08:00,97.9,59.2,29.06,East,100,4.0,7.6,28,0.00,,,0.00,LWC V2.10 B1813,2013-07-12 21:08:00,
2013-07-12 16:13:00,98.2,59.5,29.06,East,85,6.3,7.6,28,0.00,,,0.00,LWC V2.10 B1813,2013-07-12 21:13:00,
2013-07-12 16:18:00,98.4,59.6,29.06,East,92,7.6,7.6,28,0.00,,,0.00,LWC V2.10 B1813,2013-07-12 21:18:00,
2013-07-12 16:23:00,99.0,60.1,29.06,ENE,70,4.9,6.3,28,0.00,,,0.00,LWC V2.10 B1813,2013-07-12 21:23:00,
2013-07-12 16:28:00,98.2,59.5,29.06,East,97,4.9,5.8,28,0.00,,,0.00,LWC V2.10 B1813,2013-07-12 21:28:00,
2013-07-12 16:33:00,98.8,59.9,29.06,SSE,156,5.8,5.8,28,0.00,,,0.00,LWC V2.10 B1813,2013-07-12 21:33:00,
2013-07-12 16:38:00,99.0,60.1,29.06,South,181,5.8,8.1,28,0.00,,,0.00,LWC V2.10 B1813,2013-07-12 21:38:00,
2013-07-12 16:43:00,99.1,60.2,29.06,SSE,150,3.1,5.4,28,0.00,,,0.00,LWC V2.10 B1813,2013-07-12 21:43:00,
2013-07-12 16:48:00,98.8,59.9,29.06,ESE,111,5.4,8.3,28,0.00,,,0.00,LWC V2.10 B1813,2013-07-12 21:48:00,
2013-07-12 16:53:00,98.4,59.6,29.06,ESE,122,4.0,7.6,28,0.00,,,0.00,LWC V2.10 B1813,2013-07-12 21:53:00,
2013-07-12 16:58:00,98.2,59.5,29.06,ESE,114,8.1,11.0,28,0.00,,,0.00,LWC V2.10 B1813,2013-07-12 21:58:00,
2013-07-12 17:03:00,98.4,60.6,29.06,East,89,0.0,5.8,29,0.00,,,0.00,LWC V2.10 B1813,2013-07-12 22:03:00,
2013-07-12 17:08:00,98.8,59.9,29.06,SW,236,2.7,4.0,28,0.00,,,0.00,LWC V2.10 B1813,2013-07-12 22:08:00,
2013-07-12 17:13:00,98.6,59.8,29.06,East,82,4.0,8.1,28,0.00,,,0.00,LWC V2.10 B1813,2013-07-12 22:13:00,
2013-07-12 17:18:00,98.6,59.8,29.06,SSE,162,4.0,7.6,28,0.00,,,0.00,LWC V2.10 B1813,2013-07-12 22:18:00,
2013-07-12 17:23:00,98.4,59.6,29.06,East,86,3.6,4.0,28,0.00,,,0.00,LWC V2.10 B1813,2013-07-12 22:23:00,
2013-07-12 17:28:00,98.6,59.8,29.06,ESE,113,3.1,6.3,28,0.00,,,0.00,LWC V2.10 B1813,2013-07-12 22:28:00,
2013-07-12 17:33:00,98.8,59.9,29.06,South,170,2.7,4.9,28,0.00,,,0.00,LWC V2.10 B1813,2013-07-12 22:33:00,
2013-07-12 17:38:00,97.9,59.2,29.06,East,90,5.4,6.3,28,0.00,,,0.00,LWC V2.10 B1813,2013-07-12 22:38:00,
2013-07-12 17:43:00,98.4,59.6,29.06,SSE,151,6.3,7.6,28,0.00,,,0.00,LWC V2.10 B1813,2013-07-12 22:43:00,
2013-07-12 17:48:00,99.0,59.1,29.06,SW,226,6.7,6.7,27,0.00,,,0.00,LWC V2.10 B1813,2013-07-12 22:48:00,
2013-07-12 17:53:00,98.4,59.6,29.06,SSE,167,2.2,6.3,28,0.00,,,0.00,LWC V2.10 B1813,2013-07-12 22:53:00,
2013-07-12 17:58:00,98.4,59.6,29.06,SW,226,6.3,7.6,28,0.00,,,0.00,LWC V2.10 B1813,2013-07-12 22:58:00,
2013-07-12 18:03:00,98.2,59.5,29.06,SSE,150,5.8,8.1,28,0.00,,,0.00,LWC V2.10 B1813,2013-07-12 23:03:00,
2013-07-12 18:08:00,97.9,59.2,29.06,East,81,6.3,8.7,28,0.00,,,0.00,LWC V2.10 B1813,2013-07-12 23:08:00,
2013-07-12 18:13:00,97.9,59.2,29.06,East,94,8.1,8.1,28,0.00,,,0.00,LWC V2.10 B1813,2013-07-12 23:13:00,
2013-07-12 18:18:00,97.9,59.2,29.03,ESE,114,2.7,5.8,28,0.00,,,0.00,LWC V2.10 B1813,2013-07-12 23:18:00,
2013-07-12 18:23:00,97.9,59.2,29.03,SE,143,5.8,7.2,28,0.00,,,0.00,LWC V2.10 B1813,2013-07-12 23:23:00,
2013-07-12 18:28:00,97.7,59.0,29.03,SE,137,4.0,8.7,28,0.00,,,0.00,LWC V2.10 B1813,2013-07-12 23:28:00,
2013-07-12 18:33:00,97.5,58.9,29.03,ESE,120,5.8,8.1,28,0.00,,,0.00,LWC V2.10 B1813,2013-07-12 23:33:00,
2013-07-12 18:38:00,97.7,59.0,29.03,SE,124,3.6,6.3,28,0.00,,,0.00,LWC V2.10 B1813,2013-07-12 23:38:00,
2013-07-12 18:43:00,97.7,59.0,29.03,South,175,4.0,6.3,28,0.00,,,0.00,LWC V2.10 B1813,2013-07-12 23:43:00,
2013-07-12 18:48:00,97.7,59.0,29.03,SSE,160,2.2,4.5,28,0.00,,,0.00,LWC V2.10 B1813,2013-07-12 23:48:00,
2013-07-12 18:53:00,97.5,58.9,29.03,East,80,3.1,3.6,28,0.00,,,0.00,LWC V2.10 B1813,2013-07-12 23:53:00,
2013-07-12 18:58:00,97.3,58.7,29.03,ESE,115,3.1,7.2,28,0.00,,,0.00,LWC V2.10 B1813,2013-07-12 23:58:00,
2013-07-12 19:03:00,97.0,58.4,29.03,ESE,108,4.0,8.1,28,0.00,,,0.00,LWC V2.10 B1813,2013-07-13 00:03:00,
2013-07-12 19:08:00,96.8,58.3,29.03,East,99,4.9,6.3,28,0.00,,,0.00,LWC V2.10 B1813,2013-07-13 00:08:00,
2013-07-12 19:13:00,97.0,58.4,29.03,SSE,153,4.0,5.4,28,0.00,,,0.00,LWC V2.10 B1813,2013-07-13 00:13:00,
2013-07-12 19:18:00,96.6,58.1,29.03,ESE,121,2.7,5.4,28,0.00,,,0.00,LWC V2.10 B1813,2013-07-13 00:18:00,
2013-07-12 19:23:00,96.6,58.1,29.03,ESE,112,6.3,6.3,28,0.00,,,0.00,LWC V2.10 B1813,2013-07-13 00:23:00,
2013-07-12 19:28:00,96.4,57.9,29.03,SSE,155,4.9,4.9,28,0.00,,,0.00,LWC V2.10 B1813,2013-07-13 00:28:00,
2013-07-12 19:33:00,96.4,57.9,29.03,SSE,156,3.6,3.6,28,0.00,,,0.00,LWC V2.10 B1813,2013-07-13 00:33:00,
2013-07-12 19:38:00,96.3,57.8,29.03,SSE,156,0.0,4.0,28,0.00,,,0.00,LWC V2.10 B1813,2013-07-13 00:38:00,
2013-07-12 19:43:00,96.3,58.8,29.03,SE,124,3.6,4.0,29,0.00,,,0.00,LWC V2.10 B1813,2013-07-13 00:43:00,
2013-07-12 19:48:00,95.9,57.5,29.03,SE,131,3.1,5.8,28,0.00,,,0.00,LWC V2.10 B1813,2013-07-13 00:48:00,
2013-07-12 19:53:00,95.4,57.0,29.03,SE,128,2.7,5.8,28,0.00,,,0.00,LWC V2.10 B1813,2013-07-13 00:53:00,
2013-07-12 19:58:00,95.2,57.9,29.03,SE,141,2.7,3.6,29,0.00,,,0.00,LWC V2.10 B1813,2013-07-13 00:58:00,
2013-07-12 20:03:00,95.0,57.7,29.03,SE,145,2.2,4.0,29,0.00,,,0.00,LWC V2.10 B1813,2013-07-13 01:03:00,
2013-07-12 20:08:00,94.8,57.5,29.03,SSE,149,2.7,3.6,29,0.00,,,0.00,LWC V2.10 B1813,2013-07-13 01:08:00,
2013-07-12 20:13:00,94.5,57.2,29.03,SE,130,2.7,3.1,29,0.00,,,0.00,LWC V2.10 B1813,2013-07-13 01:13:00,
2013-07-12 20:18:00,94.1,56.9,29.03,SE,130,2.7,3.1,29,0.00,,,0.00,LWC V2.10 B1813,2013-07-13 01:18:00,
2013-07-12 20:23:00,93.6,56.5,29.03,SSE,149,2.2,3.1,29,0.00,,,0.00,LWC V2.10 B1813,2013-07-13 01:23:00,
2013-07-12 20:28:00,93.4,57.3,29.03,SE,136,0.0,3.6,30,0.00,,,0.00,LWC V2.10 B1813,2013-07-13 01:28:00,
2013-07-12 20:33:00,93.0,56.9,29.03,SE,138,2.2,3.1,30,0.00,,,0.00,LWC V2.10 B1813,2013-07-13 01:33:00,
2013-07-12 20:38:00,92.7,56.6,29.03,ESE,123,2.7,2.7,30,0.00,,,0.00,LWC V2.10 B1813,2013-07-13 01:38:00,
2013-07-12 20:43:00,92.3,56.3,29.03,ESE,122,0.0,2.7,30,0.00,,,0.00,LWC V2.10 B1813,2013-07-13 01:43:00,
2013-07-12 20:48:00,92.1,56.2,29.03,ESE,123,2.2,3.6,30,0.00,,,0.00,LWC V2.10 B1813,2013-07-13 01:48:00,
2013-07-12 20:53:00,91.9,56.0,29.03,ESE,106,2.7,3.6,30,0.00,,,0.00,LWC V2.10 B1813,2013-07-13 01:53:00,
2013-07-12 20:58:00,91.8,56.8,29.03,East,95,3.6,3.6,31,0.00,,,0.00,LWC V2.10 B1813,2013-07-13 01:58:00,
2013-07-12 21:03:00,91.8,56.8,29.03,East,100,3.1,4.9,31,0.00,,,0.00,LWC V2.10 B1813,2013-07-13 02:03:00,
2013-07-12 21:08:00,91.6,56.6,29.03,ESE,116,3.1,4.0,31,0.00,,,0.00,LWC V2.10 B1813,2013-07-13 02:08:00,
2013-07-12 21:13:00,91.6,56.6,29.03,ESE,113,3.6,3.6,31,0.00,,,0.00,LWC V2.10 B1813,2013-07-13 02:13:00,
2013-07-12 21:18:00,91.2,57.2,29.06,ENE,68,3.6,5.4,32,0.00,,,0.00,LWC V2.10 B1813,2013-07-13 02:18:00,
2013-07-12 21:23:00,91.2,57.2,29.06,ESE,105,5.8,8.7,32,0.00,,,0.00,LWC V2.10 B1813,2013-07-13 02:23:00,
2013-07-12 21:28:00,90.9,56.9,29.06,ESE,110,5.4,8.1,32,0.00,,,0.00,LWC V2.10 B1813,2013-07-13 02:28:00,
2013-07-12 21:33:00,90.7,57.6,29.06,SE,130,4.0,9.2,33,0.00,,,0.00,LWC V2.10 B1813,2013-07-13 02:33:00,
2013-07-12 21:38:00,90.5,57.4,29.06,South,171,3.6,4.9,33,0.00,,,0.00,LWC V2.10 B1813,2013-07-13 02:38:00,
2013-07-12 21:43:00,90.3,57.3,29.06,SE,124,4.0,6.3,33,0.00,,,0.00,LWC V2.10 B1813,2013-07-13 02:43:00,
2013-07-12 21:48:00,90.1,57.9,29.06,SE,131,5.8,7.2,34,0.00,,,0.00,LWC V2.10 B1813,2013-07-13 02:48:00,
2013-07-12 21:53:00,90.0,57.8,29.06,SE,129,5.4,5.8,34,0.00,,,0.00,LWC V2.10 B1813,2013-07-13 02:53:00,
2013-07-12 21:58:00,90.0,57.8,29.06,ESE,106,3.1,7.6,34,0.00,,,0.00,LWC V2.10 B1813,2013-07-13 02:58:00,
2013-07-12 22:03:00,89.6,57.5,29.06,ENE,64,3.1,6.3,34,0.00,,,0.00,LWC V2.10 B1813,2013-07-13 03:03:00,
2013-07-12 22:08:00,89.2,58.0,29.06,East,88,4.0,6.3,35,0.00,,,0.00,LWC V2.10 B1813,2013-07-13 03:08:00,
2013-07-12 22:13:00,89.1,58.6,29.06,East,101,4.9,5.8,36,0.00,,,0.00,LWC V2.10 B1813,2013-07-13 03:13:00,
2013-07-12 22:18:00,89.1,58.6,29.03,East,100,4.9,6.7,36,0.00,,,0.00,LWC V2.10 B1813,2013-07-13 03:18:00,
2013-07-12 22:23:00,88.7,59.0,29.03,East,88,4.9,5.8,37,0.00,,,0.00,LWC V2.10 B1813,2013-07-13 03:23:00,
2013-07-12 22:28:00,88.5,59.6,29.03,SE,124,5.8,7.6,38,0.00,,,0.00,LWC V2.10 B1813,2013-07-13 03:28:00,
2013-07-12 22:33:00,88.3,59.5,29.06,SE,145,4.0,6.3,38,0.00,,,0.00,LWC V2.10 B1813,2013-07-13 03:33:00,
2013-07-12 22:38:00,88.2,59.3,29.06,ESE,106,6.3,6.3,38,0.00,,,0.00,LWC V2.10 B1813,2013-07-13 03:38:00,
2013-07-12 22:43:00,88.0,59.2,29.06,ESE,108,4.9,5.4,38,0.00,,,0.00,LWC V2.10 B1813,2013-07-13 03:43:00,
2013-07-12 22:48:00,88.0,59.9,29.06,ESE,103,6.3,7.2,39,0.00,,,0.00,LWC V2.10 B1813,2013-07-13 03:48:00,
2013-07-12 22:53:00,88.0,59.2,29.06,SE,138,4.9,6.3,38,0.00,,,0.00,LWC V2.10 B1813,2013-07-13 03:53:00,
2013-07-12 22:58:00,87.8,59.7,29.06,ESE,118,3.6,5.8,39,0.00,,,0.00,LWC V2.10 B1813,2013-07-13 03:58:00,
2013-07-12 23:01:00,87.8,59.7,29.06,SE,130,5.8,5.8,39,0.00,,,0.00,LWC V2.10 B1813,2013-07-13 04:01:00,
2013-07-12 23:06:00,87.6,59.6,29.06,SE,129,3.6,7.6,39,0.00,,,0.00,LWC V2.10 B1813,2013-07-13 04:06:00,
2013-07-12 23:11:00,87.4,59.4,29.06,East,79,4.9,5.8,39,0.00,,,0.00,LWC V2.10 B1813,2013-07-13 04:11:00,
2013-07-12 23:16:00,87.3,60.0,29.06,SSE,152,6.3,7.2,40,0.00,,,0.00,LWC V2.10 B1813,2013-07-13 04:16:00,
2013-07-12 23:21:00,87.1,59.8,29.09,SSE,166,5.4,6.3,40,0.00,,,0.00,LWC V2.10 B1813,2013-07-13 04:21:00,
2013-07-12 23:26:00,87.1,59.8,29.09,SE,141,5.4,5.8,40,0.00,,,0.00,LWC V2.10 B1813,2013-07-13 04:26:00,
2013-07-12 23:31:00,86.9,59.6,29.09,South,181,4.0,5.8,40,0.00,,,0.00,LWC V2.10 B1813,2013-07-13 04:31:00,
2013-07-12 23:36:00,86.7,60.2,29.09,SE,128,5.4,8.7,41,0.00,,,0.00,LWC V2.10 B1813,2013-07-13 04:36:00,
2013-07-12 23:41:00,86.5,60.0,29.09,East,96,4.9,5.8,41,0.00,,,0.00,LWC V2.10 B1813,2013-07-13 04:41:00,
2013-07-12 23:46:00,86.4,59.8,29.09,ESE,106,4.0,6.3,41,0.00,,,0.00,LWC V2.10 B1813,2013-07-13 04:46:00,
2013-07-12 23:51:00,86.2,60.4,29.09,SE,131,5.4,8.3,42,0.00,,,0.00,LWC V2.10 B1813,2013-07-13 04:51:00,
2013-07-12 23:56:00,86.2,60.4,29.09,SSE,167,5.8,6.3,42,0.00,,,0.00,LWC V2.10 B1813,2013-07-13 04:56:00,